Tracking 30995 objects as of 5-Jul-2025
HD Live streaming from Space Station
objects crossing your sky now

SL-14 DEB

Track SL-14 DEB now!
10-day predictions


NORAD ID: 45277
Int'l Code: 1991-056P
Perigee: 1,049.6 km
Apogee: 1,207.9 km
Inclination: 82.6 °
Period: 107.7 minutes
Semi major axis: 7499 km
RCS: Unknown
Launch date: August 15, 1991
Source: Commonwealth of Independent States (former USSR) (CIS)
Launch site: PLESETSK MISSILE AND SPACE COMPLEX (PKMTR)

Note: This is SATELLITE DEBRIS
Your satellite tracking list
Your tracking list is empty




NASA's NSSDC Master Catalog

Two Line Element Set (TLE):
1 45277U 91056P   25186.48076928  .00003201  00000-0  59711-2 0  9993
2 45277  82.5610   3.7323 0105559  31.5734 329.1675 13.36701538260687
Source of the keplerian elements: AFSPC